sat.trackr.live / text

‹ back to catalog

YAM-7

NORAD 60504 · 2024-149AN

PAYLOAD ACTIVE UNKNOWN

§ Identity

Operator
Country
US
Launch date
2024-08-16
Launch site
AFWTR
Launch vehicle
Mass (kg)
RCS (m²)

External: N2YO · Heavens-Above · Gunter

§ Orbital elements

Epoch: 2026-05-25T04:35:30.314112Z

Period
94.03 min
Inclination
97.3784°
Eccentricity
0.0003990
Mean motion
15.31450024 rev/d
Perigee alt
468.8 km
Apogee alt
474.2 km
Semi-major
6,849.6 km
B*
2.3125e-4
RAAN
225.5404°
Arg perigee
41.2307°
Mean anomaly
318.9236°
Rev number
9,853

§ Raw data

YAM-71 60504U 24149AN  26145.19132308  .00006947  00000+0  23125-3 0  99912 60504  97.3784 225.5404 0003990  41.2307 318.9236 15.31450024 98537

JSON: /api/v1/satellites/60504 · /tle

For live sub-satellite position, see the globe view (requires WebGL).

§ Visibility from observer

Set your observer location to see the next 7 days of passes ≥ 10°. The values pass through the URL so the page stays shareable.

No JS? Fill the form by hand. The geolocation button needs JavaScript.

§ Radio — SatNOGS DB

ModeDescriptionDownlinkUplink
FM Mode S - Transmitter 2.230 GHz
FSK Mode U - Transmitter 401.500 MHz
FM Mode X - Transmitter 8.125 GHz
FM Mode U - Backup Downlink (inactive) 401.017 MHz
FM Mode U - Backup Downlink (inactive) 401.085 MHz
FM Mode U - Backup Downlink (inactive) 401.155 MHz
FM Mode U - Backup Downlink (inactive) 401.225 MHz
FM Mode U - Backup Downlink (inactive) 401.375 MHz
FM Mode U - Backup Downlink (inactive) 401.438 MHz
FM Mode U - Backup Downlink (inactive) 401.015 MHz
FM Mode U - Downlink (inactive) 400.875 MHz

11 transmitters · refreshed weekly from db.satnogs.org